Tanana, AK

2:16 AM AKST on February 22, 2017 (GMT -0900)
Calhoun Memorial

Weather History for PATA - September, 2012

Change the Weather History Date:

Sunday, September 9, 2012

  Actual Average Record
Temperature  
Mean Temperature 42 °F -  
Max Temperature 53 °F 56 °F 70 °F (2010)
Min Temperature 30 °F 35 °F 14 °F (1970)
Degree Days  
Heating Degree Days 24    
Moisture  
Dew Point 30 °F    
Average Humidity 68    
Maximum Humidity 96    
Minimum Humidity 40    
Precipitation  
Precipitation 0.00 in - - ()
Sea Level Pressure  
Sea Level Pressure 29.96 in    
Wind  
Wind Speed 4 mph (NW)    
Max Wind Speed 12 mph    
Max Gust Speed -    
Visibility 10 miles    
Events      
Averages and records for this station are not official NWS values.
T = Trace of Precipitation, MM = Missing Value Source: NWS Daily Summary

Daily Weather History Graph

Daily Weather History Graph

Search for Another Location

Airport or City:

Trip Planner

Search our weather history database for the weather conditions in past years. The results will help you decide how hot, cold, wet, or windy it might be!

Date:

Astronomy

Sep. 09, 2012 Rise Set
Actual Time 7:13 AM AKDT 8:55 PM AKDT
Civil Twilight 6:21 AM AKDT 9:47 PM AKDT
Nautical Twilight 5:11 AM AKDT 10:55 PM AKDT
Astronomical Twilight 3:31 AM AKDT 12:31 AM AKDT
Moon 11:54 PM AKDT (9/9) 6:43 PM AKDT (9/9)
Length of Visible Light 15h 25m
Length of Day
13h 41m
Last Quarter, 38% of the Moon is Illuminated
Sep 9
Last Quarter
Sep 15
New
Sep 22
First Quarter
Sep 29
Full
Oct 7
Last Quarter

Hourly Weather History & Observations

Time (AKDT) Temp. Windchill Dew Point Humidity Pressure Visibility Wind Dir Wind Speed Gust Speed Precip Events Conditions
12:52 AM 37.0 °F - 33.1 °F 86% 29.94 in 10.0 mi Calm Calm - N/A   Partly Cloudy
1:52 AM 33.1 °F 30.0 °F 30.9 °F 92% 29.94 in 10.0 mi NE 3.5 mph - N/A   Clear
2:52 AM 33.1 °F - 30.9 °F 92% 29.94 in 10.0 mi Calm Calm - N/A   Clear
3:52 AM 32.0 °F - 30.9 °F 96% 29.94 in 10.0 mi Calm Calm - N/A   Clear
4:52 AM 30.0 °F 25.2 °F 28.0 °F 92% 29.95 in 10.0 mi NNW 4.6 mph - N/A   Clear
5:52 AM 30.9 °F 26.2 °F 28.9 °F 92% 29.95 in 10.0 mi NW 4.6 mph - N/A   Clear
6:52 AM 30.9 °F 25.2 °F 28.0 °F 89% 29.96 in 10.0 mi NW 5.8 mph - N/A   Partly Cloudy
7:52 AM 30.0 °F 24.1 °F 28.0 °F 92% 29.96 in 10.0 mi WNW 5.8 mph - N/A   Partly Cloudy
8:52 AM 36.0 °F 31.1 °F 30.9 °F 82% 29.96 in 10.0 mi West 5.8 mph - N/A   Scattered Clouds
9:52 AM 42.1 °F 38.4 °F 34.0 °F 73% 29.96 in 10.0 mi West 5.8 mph - N/A   Clear
10:52 AM 44.1 °F 38.6 °F 33.1 °F 65% 29.96 in 10.0 mi WNW 10.4 mph - N/A   Clear
11:52 AM 46.0 °F 41.9 °F 32.0 °F 58% 29.96 in 10.0 mi North 8.1 mph - N/A   Partly Cloudy
12:52 PM 48.9 °F - 30.9 °F 50% 29.95 in 10.0 mi NNW 5.8 mph - N/A   Partly Cloudy
1:52 PM 50.0 °F - 28.9 °F 44% 29.95 in 10.0 mi NNW 6.9 mph - N/A   Partly Cloudy
2:52 PM 51.1 °F - 28.9 °F 43% 29.95 in 10.0 mi WNW 11.5 mph - N/A   Scattered Clouds
3:52 PM 53.1 °F - 30.0 °F 41% 29.95 in 10.0 mi North 11.5 mph - N/A   Mostly Cloudy
4:52 PM 51.1 °F - 30.0 °F 44% 29.95 in 10.0 mi WNW 8.1 mph - N/A   Mostly Cloudy
5:52 PM 52.0 °F - 28.0 °F 40% 29.95 in 10.0 mi North 10.4 mph - N/A   Scattered Clouds
6:52 PM 50.0 °F - 28.0 °F 43% 29.96 in 10.0 mi NNW 6.9 mph - N/A   Scattered Clouds
7:52 PM 46.9 °F - 28.9 °F 50% 29.96 in 10.0 mi NNW 6.9 mph - N/A   Partly Cloudy
8:52 PM 41.0 °F 38.0 °F 30.0 °F 65% 29.96 in 10.0 mi NW 4.6 mph - N/A   Partly Cloudy
9:52 PM 37.0 °F 34.5 °F 28.9 °F 73% 29.97 in 10.0 mi NNW 3.5 mph - N/A   Clear
10:52 PM 36.0 °F 33.3 °F 26.1 °F 67% 29.98 in 10.0 mi West 3.5 mph - N/A   Clear
11:52 PM 35.1 °F 31.0 °F 26.1 °F 70% 29.98 in 10.0 mi WNW 4.6 mph - N/A   Clear